METEOR 2-17 DEB, 38282

Orbit data source: Space-Track

METEOR 2-17 DEB, 38282 is space debris in LEO originally from a launch on Sat, 30 Jan 1988 UTC launched from the Plesetsk Missile And Space Complex (PKMTR). Debris objects in space refer to the collection of defunct objects orbiting the Earth. Examples of debris include non-operational satellites, rocket bodies, and fragments generated from explosions, collisions, or faulty payload assembly.

Loading next visibility...
Identifier
38282, 1988-005AK
Orbit
LEO
Country
Flag of CISCIS
Related business
Manufacturer
Unknown
Mission
Spacecraft
Bus & Motor
Unknown
Mass
Unknown
Launch date (UTC)
1988-01-30 (38 years ago)
Launch vehicle
Unknown
Launch site
Plesetsk Missile And Space Complex (PKMTR)
Object type
Payload
Rocket body
Debris
Shape & HBR
Unknown shape, 0.1 m
Radar Cross Section
Small (<0.1 m²)

Expand to show TLE details & history
Last TLE update: 3 weeks ago

TLE from 3 weeks ago
0 METEOR 2-17 DEB
1 38282U 88005AK  25286.19579180  .00002560  00000-0  16594-2 0  9997
2 38282  82.5322 100.8985 0025680 219.6190 140.3104 14.02200975 76250
Epoch: 2025-10-13T04:41Z
TLE epoch observation values (Epoch: 2025-10-13T04:41:56.411Z)
Latitude
-0.00008°
Longitude
8.41139°
Altitude
903.488 km
Speed
7.393 km/s
True Right ascension
06h 43m 35s
True Declination
0° 00' 00"
Sunlit
Object was in daylight at epoch
Visualization orbit readout
Latitude
Unknown
Longitude
Unknown
Altitude
Unknown
Speed
Unknown
Apparent Right ascension
Unknown
Apparent Declination
Unknown
Sunlit
N/A
Visualization observer readout
Local Sidereal Time
07:35:11
Azimuth
Unknown
Elevation
Unknown
Doppler factor
Unknown
Orbital elements
Apogee altitude
901.958 km
Perigee altitude
864.664 km
Semi-major axis
7,261.448 km
Eccentricity
0.00257
Inclination
82.5322°
RAAN
100.8985°
Arg. of periapsis
219.619°
True anomaly
140.49787°
Mean anomaly
140.3104°
Eccentric anomaly
140.40418°
Mean motion
3.50759 °/min
Orbital period
102.63 mins
BSTAR
0.0016594
Loading maneuver chart data...
Computing Atmospheric mass density...
Loading historical data...
Loading historical data...
Loading historical data...
Loading historical data...
Loading historical data...
Loading historical data...
Loading historical data...

Documentation

Showing up to 5 results
|